SB KEPS @ AMSAT $ORB13241.N 2Line Orbital Elements 13241.AMSAT
HR AMSAT ORBITAL ELEMENTS FOR AMATEUR SATELLITES IN NASA FORMAT FROM WA5QGD FORT WORTH,TX August 29, 2013 BID: ORB13241.N
DECODE 2-LINE ELSETS WITH THE FOLLOWING KEY: 1 AAAAAU 00 0 0 BBBBB.BBBBBBBB .CCCCCCCC 00000-0 00000-0 0 DDDZ 2 AAAAA EEE.EEEE FFF.FFFF GGGGGGG HHH.HHHH III.IIII JJ.JJJJJJJJKKKKKZ KEY: A-CATALOGNUM B-EPOCHTIME C-DECAY D-ELSETNUM E-INCLINATION F-RAAN G-ECCENTRICITY H-ARGPERIGEE I-MNANOM J-MNMOTION K-ORBITNUM Z-CHECKSUM
TO ALL RADIO AMATEURS BT
AO-07 1 07530U 74089B 13241.54020365 -.00000047 00000-0 -21869-4 0 7642 2 07530 101.4393 228.4011 0012261 142.9920 328.4528 12.53597962774970 FO-29 1 24278U 96046B 13241.19361288 -.00000038 00000-0 -16649-6 0 1860 2 24278 098.5482 289.9676 0349913 335.1145 053.6473 13.53004994841187 SO-33 1 25509U 98061B 13240.77759530 .00000230 00000-0 35235-4 0 5711 2 25509 031.4325 016.6075 0350953 073.4398 068.1906 14.29113813775287 RS-22 1 27939U 03042A 13241.62948265 .00000500 00000-0 10259-3 0 7197 2 27939 097.8003 065.6515 0012791 318.8751 041.1482 14.64552439530045 VO-52 1 28650U 05017B 13241.14211959 .00001174 00000-0 14595-3 0 5117 2 28650 097.5674 256.0038 0026491 043.9412 356.1999 14.84085765449906 HO-68 1 36122U 09072B 13241.77662136 -.00000044 00000-0 00000 0 0 8606 2 36122 100.3000 296.9467 0007464 183.7984 176.3071 13.16306510178090 UO-11 1 14781U 84021B 13241.61870999 .00000399 00000-0 58243-4 0 2705 2 14781 097.8961 301.8552 0009692 057.6697 302.5452 14.80992323584800 AO-16 1 20439U 90005D 13241.44950669 .00000070 00000-0 42009-4 0 8283 2 20439 098.4745 179.7893 0009731 304.9957 167.2297 14.32200513232729 LO-19 1 20442U 90005G 13241.81119836 .00000068 00000-0 40908-4 0 7643 2 20442 098.4443 181.6946 0010643 292.5723 101.0147 14.32409959232978 AO-27 1 22825U 93061C 13240.84989448 .00000051 00000-0 37064-4 0 4661 2 22825 098.6229 184.1236 0009558 078.7660 315.2024 14.29585443 39018 IO-26 1 22826U 93061D 13241.13277839 .00000064 00000-0 41887-4 0 2221 2 22826 098.6172 184.6756 0009988 071.5579 053.8684 14.29872020 39180 GO-32 1 25397U 98043D 13241.86070661 .00000016 00000-0 25517-4 0 1493 2 25397 098.4235 206.4441 0002438 092.2752 326.6144 14.23356396786429 NO-44 1 26931U 01043C 13241.61898412 .00000069 00000-0 58669-4 0 4065 2 26931 067.0513 070.2074 0007718 269.3487 148.8955 14.29953039621922 SO-50 1 27607U 02058C 13241.76751350 .00000532 00000-0 81358-4 0 1555 2 27607 064.5571 040.1232 0037543 137.9792 222.4702 14.73051893574550 CO-55 1 27844U 03031E 13241.50738356 .00000178 00000-0 10150-3 0 7286 2 27844 098.7024 249.5179 0010285 044.2608 109.1556 14.21261030527140 CO-57 1 27848U 03031J 13241.07591578 .00000161 00000-0 94504-4 0 6721 2 27848 098.7112 248.6437 0010319 051.1037 341.2002 14.20981297527014 AO-51 1 28375U 04025K 13241.84447791 .00000089 00000-0 39305-4 0 6416 2 28375 098.2087 194.3763 0084269 152.6112 261.1489 14.41152691481942 CP3 1 31129U 07012N 13241.00374322 .00000417 00000-0 10341-3 0 5392 2 31129 097.9037 229.5572 0099814 199.9031 193.5442 14.53781230337575 CO-65 1 32785U 08021C 13241.19177444 .00001001 00000-0 12610-3 0 7234 2 32785 097.7446 296.6238 0015441 071.9191 321.2879 14.84069961288708 PRISM 1 33493U 09002B 13241.73474655 .00002899 00000-0 33441-3 0 1285 2 33493 098.2258 041.1471 0017244 317.0291 042.9569 14.86388687248847 SOHLA-1 1 33496U 09002E 13241.08301264 .00000270 00000-0 52966-4 0 1332 2 33496 098.1421 356.9406 0007867 093.5550 319.8697 14.70356403246581 SO-67 1 35870U 09049F 13241.87338082 .00005359 00000-0 19967-3 0 3772 2 35870 097.1880 268.0074 0003562 074.0319 051.1337 15.27852011219504 TISAT-1 1 36799U 10035E 13241.84138012 .00002223 00000-0 27591-3 0 3980 2 36799 098.0323 326.9735 0014066 184.1261 175.9797 14.83596654169491 STUDSAT 1 36801U 10035G 13240.84890722 .00005695 00000-0 60710-3 0 6738 2 36801 098.0435 329.8207 0011995 166.1041 333.9408 14.89231713169526 ALMASAT-1 1 38078U 12006B 13241.60912987 .00020003 00000-0 49827-3 0 5688 2 38078 069.4704 030.1863 0679915 052.6165 313.4903 14.28232289 79719 XATCOBEO 1 38082U 12006F 13241.73007554 .00059197 36069-5 10814-2 0 4465 2 38082 069.4727 355.9938 0535294 033.8595 329.5485 14.65342413 80660 SOMP 1 39135U 13015F 13241.68108084 .00004374 00000-0 35616-3 0 2767 2 39135 064.8792 337.7148 0004672 211.8243 264.6160 15.00757090 19854 CUBEBUG-1 1 39153U 13018D 13241.73187102 .00001123 00000-0 16804-3 0 3571 2 39153 098.0697 317.4683 0017577 203.7232 156.3158 14.76576902 18533 ESTCUBE-1 1 39161U 13021C 13241.65796156 .00000986 00000-0 17630-3 0 3181 2 39161 098.1252 319.5182 0008825 238.6160 121.4179 14.69085650 16788 NOAA-10 1 16969U 86073A 13241.51435917 .00000061 00000-0 42133-4 0 4776 2 16969 098.5421 267.7421 0012539 036.3419 113.5561 14.27660460402405 NOAA-11 1 19531U 88089A 13241.49675089 .00000034 00000-0 39963-4 0 4896 2 19531 098.7078 322.7893 0011916 056.7437 014.6697 14.15026308286496 NOAA-12 1 21263U 91032A 13241.26126442 .00000033 00000-0 32435-4 0 9556 2 21263 098.6940 266.0558 0013759 012.3960 126.9218 14.25583442158966 MET-3/5 1 21655U 91056A 13241.48253794 -.00000059 00000-0 -18417-3 0 7711 2 21655 082.5571 202.5042 0012174 310.0136 049.9917 13.17048534 59585 MET-2/21 1 22782U 93055A 13241.51127596 .00000038 00000-0 21350-4 0 8300 2 22782 082.5483 044.7332 0022149 007.0295 026.2052 13.83710856 9780 OKEAN-4 1 23317U 94066A 13241.12958550 .00000708 00000-0 80790-4 0 3084 2 23317 082.5424 341.5159 0020241 349.0577 102.8495 14.84608986 19761 NOAA-14 1 23455U 94089A 13241.45527020 -.00000013 00000-0 16006-4 0 4330 2 23455 098.8004 324.7747 0010329 145.7385 273.2740 14.13918564962725 NOAA-15 1 25338U 98030A 13241.45787359 .00000100 00000-0 61374-4 0 8546 2 25338 098.7307 231.2868 0009435 274.6318 238.7894 14.25259797795282 RESURS 1 25394U 98043A 13241.50547966 -.00000008 00000-0 14341-4 0 4564 2 25394 098.3702 213.8586 0002254 067.1821 080.4656 14.24334680786796 FENGYUN1 1 25730U 99025A 13241.53262148 .00000619 00000-0 37075-3 0 9513 2 25730 098.8838 200.1643 0024682 200.9012 273.0502 14.10620738736383 OKEAN-0 1 25860U 99039A 13241.86462745 .00000348 00000-0 59702-4 0 335 2 25860 097.9985 203.3612 0000780 114.8363 278.6447 14.74681403759218 NOAA-16 1 26536U 00055A 13241.27439340 .00000199 00000-0 13114-3 0 3429 2 26536 099.0357 294.7385 0009486 289.9568 112.3623 14.12909664666894 NOAA-17 1 27453U 02032A 13241.48387190 .00000078 00000-0 51330-4 0 2511 2 27453 098.3130 251.6799 0010582 314.0455 209.6983 14.24614248581157 NOAA-18 1 28654U 05018A 13241.51376825 .00000035 00000-0 44224-4 0 7375 2 28654 099.1081 210.8143 0014310 007.6078 140.9289 14.11857163426407 NOAA-19 1 33591U 09005A 13241.47606772 .00000240 00000-0 15659-3 0 9181 2 33591 098.9076 182.9785 0013364 219.2533 277.0073 14.11541514234837 HUBBLE 1 20580U 90037B 13241.78355964 .00001253 00000-0 76622-4 0 3208 2 20580 028.4694 150.2844 0003331 057.5160 302.5634 15.03879000 80787 ISS 1 25544U 98067A 13241.88809028 .00008187 00000-0 14815-3 0 4883 2 25544 051.6495 103.1298 0004520 013.6606 177.8610 15.50597434846134 CO-58 1 28895U 05043F 13240.60122180 .00000389 00000-0 87698-4 0 5587 2 28895 097.8615 092.3628 0017072 209.3360 150.6885 14.61210346417519 FALCON 1 30776U 07006E 13240.82597775 .00003703 00000-0 21791-3 0 6843 2 30776 035.4302 116.1814 0002410 247.9529 182.4236 15.11265329356419 MAST 1 31126U 07012K 13241.13528043 .00000307 00000-0 77982-4 0 8390 2 31126 097.8868 232.9175 0093407 184.3362 268.1887 14.54655236337925 CAPE1 1 31130U 07012P 13241.49608852 .00000306 00000-0 78857-4 0 8415 2 31130 097.9044 229.6443 0100275 199.4000 160.3370 14.53598752337429 COMPASS 1 32787U 08021E 13241.14615064 .00002599 00000-0 30433-3 0 7153 2 32787 097.7463 297.8035 0015869 067.8207 292.4691 14.85795401288799 AAUSAT2 1 32788U 08021F 13241.80471867 .00002243 00000-0 26041-3 0 6984 2 32788 097.7472 299.1346 0015267 065.3294 294.9510 14.86285582288939 DO-64 1 32789U 08021G 13241.16363602 .00003571 00000-0 38340-3 0 7296 2 32789 097.7626 302.7294 0014487 059.9715 356.6040 14.89130928288989 CO-66 1 32791U 08021J 13241.16033730 .00001279 00000-0 15626-3 0 6930 2 32791 097.7459 297.0832 0016300 069.5145 324.4232 14.84882516288708 RS-30 1 32953U 08025A 13241.78719253 .00000010 00000-0 00000 0 0 1666 2 32953 082.5018 022.4109 0019604 073.2243 287.0988 12.43036539239054 METEOR-M 1 35865U 09049A 13241.76123734 -.00000017 00000-0 11762-4 0 7632 2 35865 098.5955 292.3523 0001747 208.1292 151.9791 14.21891908204922 RS-38 1 35869U 09049E 13241.71138807 .00000032 00000-0 33873-4 0 7125 2 35869 098.5902 292.1979 0003925 215.2876 144.8031 14.22142272204942 JUGNU 1 37839U 11058B 13241.15369105 .00000369 00000-0 55832-4 0 4514 2 37839 019.9604 224.6626 0019217 007.7287 075.5928 14.12176491 97222 SRMSAT 1 37841U 11058D 13241.16736472 .00000357 00000-0 51588-4 0 4525 2 37841 019.9708 238.0802 0011904 319.3106 108.1864 14.10243426 97089 RAX-2 1 37853U 11061D 13241.72551453 .00002696 00000-0 20845-3 0 5809 2 37853 101.7017 129.4531 0233282 176.4892 218.3783 14.84162356 99355 AUBIESAT 1 37854U 11061E 13241.64952190 .00004206 00000-0 31228-3 0 5710 2 37854 101.7054 130.3663 0233048 175.0836 240.5124 14.84928359 99367 HRBE 1 37855U 11061F 13241.67144264 .00002851 00000-0 21648-3 0 5774 2 37855 101.7051 130.1020 0234134 175.6395 241.1807 14.84563472 99358 RS-39 1 38051U 11062C 13241.67778935 .00015170 00000-0 45496-3 0 7432 2 38051 051.6341 215.3332 0011136 164.9969 177.4060 15.34613531 89053 E-STAR 1 38079U 12006C 13241.80636833 .00041674 32176-5 82622-3 0 4022 2 38079 069.4755 005.1033 0582802 038.8606 098.5687 14.53781659 80418 GOLIAT 1 38085U 12006J 13241.76616072 .00023743 30195-5 48202-3 0 3310 2 38085 069.4753 007.9960 0593703 040.3908 323.9505 14.51324026 80331 HORYU-2 1 38340U 12025D 13241.83716573 .00001293 00000-0 21832-3 0 5966 2 38340 098.2214 190.1577 0013188 024.0160 336.1679 14.71121333 68948 RS-40 1 38736U 12041D 13241.08457875 .00000010 00000-0 00000 0 0 3589 2 38736 082.4781 109.6850 0021056 164.6014 195.5716 12.42870387 49306 PROITERES 1 38756U 12047B 13241.82249263 .00000647 00000-0 10573-3 0 773 2 38756 098.2485 320.2064 0011482 229.4116 130.6070 14.74314473 52243 RAIKO 1 38852U 98067CN 13218.07382584 .24681979 12625-4 36599-3 0 3409 2 38852 051.6160 184.0336 0004489 261.9162 100.6538 16.48474690 47849 FITSAT 1 1 38853U 98067CP 13184.86912902 .06638326 12312-4 50483-3 0 3153 2 38853 051.6252 351.6077 0011722 245.9321 114.2104 16.39337660 42708 TechEdSat 1 38854U 98067CQ 13124.93253577 .11592855 12481-4 94246-3 0 2908 2 38854 051.6449 297.0261 0010505 310.8629 049.0629 16.38844728 33294 F 1 1 38855U 98067CR 13129.77714356 .27424026 12535-4 30797-3 0 2871 2 38855 051.5085 272.4145 0008326 194.2908 166.5495 16.49710473 33949 WeWish 1 38856U 98067CS 13069.98095549 .16701328 12537-4 10063-2 0 2487 2 38856 051.6166 215.0521 0008325 316.0438 044.8765 16.41348316 24586 OSSI-1 1 39131U 13015B 13188.41684431 .01502874 74059-5 44818-3 0 85 2 39131 064.8841 114.8425 0051126 026.6892 350.0589 16.22925119 12374 BEESAT-3 1 39134U 13015E 13241.53836718 .00004833 00000-0 39122-3 0 3174 2 39134 064.8802 338.1321 0004873 210.6828 237.2406 15.00847972 19838 BEESAT-2 1 39136U 13015G 13241.75100059 .00004289 00000-0 34942-3 0 3071 2 39136 064.8787 337.4822 0004742 211.6613 291.1083 15.00767203 19869 /EX